Home   Weather   Guadalajara   Past weeks

Flag for Mexico Past Weather in Guadalajara, Jalisco, Mexico — Yesterday and Last 2 Weeks

Now
63 °F

Passing clouds.


Feels Like: 63 °F
Forecast: 55 / 73 °F
Wind: 12 mph from South

Location: Don Miguel / Guadalaj

Current Time: Dec 4, 2016 at 4:24:14 am

Latest Report: Dec 4, 2016 at 3:50 am


Visibility: 8 mi

Pressure: 30.01 "Hg (25.02 "Hg at 1543m altitude)

Humidity: 68%

Dew Point: 52 °F

Location of GuadalajaraLocation

Past Weather in Guadalajara — Graph

°F

Guadalajara Temperature Yesterday

Maximum temperature yesterday: 75 °F (at 12:55 pm)
Minimum temperature yesterday: 55 °F (at 2:56 am)
Average temperature yesterday: 63 °F

High & Low Weather Summary for the Past Weeks

 TemperatureHumidityPressure
High79 °F (Nov 22, 1:49 pm)94% (Nov 21, 7:52 am)30.41 "Hg (Nov 21, 7:52 am)
Low41 °F (Nov 27, 5:51 am)16% (Nov 28, 3:51 pm)29.72 "Hg (Dec 3, 2:48 pm)
Average62 °F62%30.09 "Hg
* Reported Nov 19 2:49 am — Dec 4 2:52 am, Guadalajara, Weather by CustomWeather, © 2016

Note: Actual official high and low records may vary slightly from our data, if they occured in-between our weather recording intervals... More about our weather records

Advertising

Guadalajara Weather History for the Previous 24 Hours

Scroll right to see more
 ConditionsComfort  
Time TempWeatherWind HumidityBarometerVisibility
2:52 am
Sun, Dec 4
59 °FPassing clouds.5 mph82%29.83 "Hg8 mi
12:55 am59 °FPassing clouds.2 mph77%30.05 "Hg8 mi
11:53 pm
Sat, Dec 3
59 °FPassing clouds.2 mph77%29.85 "Hg8 mi
10:56 pm61 °FPartly cloudy.6 mph72%30.08 "Hg8 mi
9:53 pm59 °FPartly cloudy.No wind82%30.08 "Hg8 mi
8:50 pm57 °FPartly cloudy.3 mph88%29.86 "Hg8 mi
7:54 pm59 °FPartly cloudy.3 mph82%30.09 "Hg8 mi
6:54 pm57 °FPartly cloudy.No wind82%30.07 "Hg8 mi
5:53 pm68 °FPartly sunny.13 mph53%29.74 "Hg8 mi
2:48 pm72 °FPartly sunny.13 mph50%29.72 "Hg10 mi
1:48 pm73 °FPartly sunny.20 mph47%30.05 "Hg10 mi
12:55 pm75 °FBroken clouds.15 mph41%30.07 "Hg10 mi
11:53 am73 °FBroken clouds.21 mph47%29.78 "Hg10 mi
10:50 am70 °FPartly sunny.12 mph53%30.14 "Hg10 mi
9:51 am64 °FBroken clouds.3 mph60%30.15 "Hg10 mi
8:48 am63 °FBroken clouds.8 mph64%29.85 "Hg10 mi
7:49 am57 °FPartly sunny.9 mph77%30.12 "Hg10 mi
5:53 am57 °FPartly cloudy.3 mph77%29.84 "Hg10 mi
Weather by CustomWeather, © 2016

See weather overviewHow to use our weather pages